DW5082 Weather Reports


time (UTC)temp
C
wind
direction
speed
KPH
gust
KPH
rain 1hr
cm
rain 24hr
cm
rain mn
cm
humidity
%
barometer
mb
20260506051204 18 235 1.6 4.8 0.00 0.00 0.00 66 1010.6
20260506050705 19 208 3.2 9.7 0.00 0.00 0.00 66 1010.6
20260506050205 19 221 3.2 11.3 0.00 0.00 0.00 66 1010.7
20260506044205 19 218 1.6 4.8 0.00 0.00 0.00 66 1010.7
20260506043705 19 189 1.6 4.8 0.00 0.00 0.00 66 1010.7
20260506043205 19 219 1.6 4.8 0.00 0.00 0.00 65 1010.7
20260506041705 19 203 3.2 12.9 0.00 0.00 0.00 65 1010.6
20260506040705 19 194 6.4 14.5 0.00 0.00 0.00 64 1010.4
20260506040204 19 201 3.2 9.7 0.00 0.00 0.00 65 1010.5
20260506034705 19 198 3.2 11.3 0.00 0.00 0.00 64 1010.6
20260506034205 19 213 3.2 11.3 0.00 0.00 0.00 64 1010.5
20260506033705 19 205 1.6 4.8 0.00 0.00 0.00 64 1010.6
20260506031705 19 222 3.2 9.7 0.00 0.00 0.00 64 1010.4
20260506031204 19 201 4.8 9.7 0.00 0.00 0.00 64 1010.3
20260506030705 19 207 1.6 12.9 0.00 0.00 0.00 64 1010.4
20260506030204 19 205 3.2 12.9 0.00 0.00 0.00 64 1010.4
20260506024705 19 230 4.8 11.3 0.00 0.00 0.00 65 1010.4
20260506024205 19 242 1.6 8.0 0.00 0.00 0.00 65 1010.4
20260506023704 19 200 1.6 9.7 0.00 0.00 0.00 65 1010.5
20260506023204 19 195 1.6 9.7 0.00 0.00 0.00 65 1010.5
20260506021705 19 212 3.2 11.3 0.00 0.00 0.00 65 1010.3
20260506021206 18 209 8.0 19.3 0.00 0.00 0.00 65 1010.2
20260506020204 18 230 3.2 14.5 0.00 0.00 0.00 66 1010.2
20260506014705 18 244 3.2 11.3 0.00 0.00 0.00 66 1010.1
20260506014205 18 278 3.2 11.3 0.00 0.00 0.00 66 1010.0
20260506013204 18 253 1.6 11.3 0.00 0.00 0.00 66 1009.9
20260506011704 18 232 1.6 8.0 0.00 0.00 0.00 65 1009.7
20260506011205 18 242 1.6 9.7 0.00 0.00 0.00 65 1009.7
20260506010705 18 219 3.2 9.7 0.00 0.00 0.00 65 1009.6
20260506010205 19 220 1.6 8.0 0.00 0.00 0.00 65 1009.6
20260506004705 20 210 1.6 4.8 0.00 0.00 0.00 62 1009.4
20260506004205 20 269 1.6 4.8 0.00 0.00 0.00 61 1009.4
20260506003704 20 276 1.6 3.2 0.00 0.00 0.00 60 1009.2
20260506003204 21 226 3.2 9.7 0.00 0.00 0.00 59 1009.2
20260506001704 21 235 1.6 8.0 0.00 0.00 0.00 58 1008.9
20260506000705 21 246 3.2 8.0 0.00 0.00 0.00 57 1008.9
20260505234704 22 235 1.6 4.8 0.00 0.00 0.00 55 1008.7
20260505234205 23 221 0.0 4.8 0.00 0.00 0.00 52 1008.7
20260505233704 24 251 3.2 11.3 0.00 0.00 0.00 46 1008.6
20260505233204 25 204 4.8 14.5 0.00 0.00 0.00 37 1008.4
20260505231705 24 155 3.2 14.5 0.00 0.00 0.00 39 1008.2
20260505231204 23 202 1.6 14.5 0.00 0.00 0.00 43 1008.2
20260505230705 23 213 0.0 4.8 0.00 0.00 0.00 51 1008.2
20260505230205 23 246 0.0 8.0 0.00 0.00 0.00 52 1008.2
20260505224705 25 224 1.6 8.0 0.00 0.00 0.00 49 1007.9
20260505224204 25 216 3.2 11.3 0.00 0.00 0.00 48 1007.9
20260505223704 25 243 1.6 8.0 0.00 0.00 0.00 47 1007.8
20260505223205 26 223 3.2 19.3 0.00 0.00 0.00 43 1007.8
20260505221704 27 219 4.8 16.1 0.00 0.00 0.00 34 1007.6
20260505221204 27 199 8.0 20.9 0.00 0.00 0.00 33 1007.7
20260505220705 27 204 9.7 29.0 0.00 0.00 0.00 34 1007.7
20260505214704 27 200 3.2 14.5 0.00 0.00 0.00 36 1007.4
20260505214204 27 197 8.0 19.3 0.00 0.00 0.00 36 1007.4
20260505211704 26 231 1.6 8.0 0.00 0.00 0.00 49 1007.3
20260505210706 26 238 1.6 11.3 0.00 0.00 0.00 49 1007.3
20260505210204 26 276 3.2 11.3 0.00 0.00 0.00 49 1007.4
20260505204705 26 310 1.6 8.0 0.00 0.00 0.00 48 1007.3
20260505204205 26 307 3.2 4.8 0.00 0.00 0.00 47 1007.4
20260505203705 26 290 1.6 8.0 0.00 0.00 0.00 48 1007.4
20260505203205 26 264 0.0 11.3 0.00 0.00 0.00 50 1007.6
20260505201704 26 240 1.6 8.0 0.00 0.00 0.00 49 1007.6
20260505200704 26 253 4.8 8.0 0.00 0.00 0.00 49 1007.7
20260505200204 26 240 4.8 12.9 0.00 0.00 0.00 49 1007.8
20260505194704 26 234 1.6 4.8 0.00 0.00 0.00 51 1008.0
20260505194204 25 272 1.6 8.0 0.00 0.00 0.00 52 1008.0
20260505193704 25 266 3.2 9.7 0.00 0.00 0.00 52 1008.2
20260505193204 25 223 3.2 19.3 0.00 0.00 0.00 51 1008.2
20260505191704 26 265 3.2 11.3 0.00 0.00 0.00 50 1008.4
20260505191205 26 233 4.8 16.1 0.00 0.00 0.00 51 1008.3
20260505190705 26 222 3.2 9.7 0.00 0.00 0.00 50 1008.4
20260505190204 26 235 3.2 12.9 0.00 0.00 0.00 51 1008.5
20260505184705 26 71 1.6 8.0 0.00 0.00 0.00 50 1008.8
20260505183705 26 255 4.8 12.9 0.00 0.00 0.00 48 1009.0
20260505183204 26 326 4.8 22.5 0.00 0.00 0.00 47 1009.0
20260505181704 27 257 6.4 19.3 0.00 0.00 0.00 46 1009.0
20260505181204 27 233 4.8 12.9 0.00 0.00 0.00 45 1009.0
20260505180205 27 233 4.8 16.1 0.00 0.00 0.00 46 1009.1
20260505174204 27 215 4.8 12.9 0.00 0.00 0.00 47 1009.2
20260505173718 26 244 3.2 11.3 0.00 0.00 0.00 47 1009.3
20260505173205 26 223 4.8 19.3 0.00 0.00 0.00 47 1009.4
20260505171206 26 186 3.2 12.9 0.00 0.00 0.00 48 1009.5
20260505170204 26 14 3.2 14.5 0.00 0.00 0.00 47 1009.6
20260505164704 26 240 4.8 12.9 0.00 0.00 0.00 48 1010.0
20260505163205 25 225 6.4 14.5 0.00 0.00 0.00 49 1010.1
20260505161705 25 215 3.2 9.7 0.00 0.00 0.00 51 1010.3
20260505161204 25 213 4.8 9.7 0.00 0.00 0.00 51 1010.4
20260505160705 24 214 4.8 9.7 0.00 0.00 0.00 50 1010.4
20260505160205 24 263 3.2 16.1 0.00 0.00 0.00 51 1010.4
20260505151205 22 227 3.2 12.9 0.00 0.00 0.00 57 1010.9
20260505140205 20 271 4.8 11.3 0.00 0.00 0.00 62 1011.3
20260505130205 17 244 1.6 9.7 0.00 0.00 0.00 66 1011.1
20260505124204 16 214 1.6 8.0 0.00 0.00 0.00 64 1011.1
20260505123204 15 270 1.6 9.7 0.00 0.00 0.00 63 1011.2
20260505121704 15 235 1.6 4.8 0.00 0.00 0.00 60 1011.3
20260505121205 15 211 1.6 4.8 0.00 0.00 0.00 59 1011.3
20260505114704 15 87 0.0 0.0 0.00 0.00 0.00 55 1011.2
20260505114204 15 87 0.0 0.0 0.00 0.00 0.00 56 1011.0
20260505113204 15 79 0.0 4.8 0.00 0.00 0.00 61 1011.2
20260505111704 15 224 0.0 1.6 0.00 0.00 0.00 63 1011.5
20260505111204 14 218 0.0 1.6 0.00 0.00 0.00 64 1011.4
20260505110704 14 225 0.0 3.2 0.00 0.00 0.00 63 1011.4
20260505110204 14 207 1.6 4.8 0.00 0.00 0.00 63 1011.6
20260505101704 13 266 0.0 4.8 0.00 0.00 0.00 60 1011.1
20260505101204 13 242 0.0 1.6 0.00 0.00 0.00 60 1011.0
20260505100704 13 215 0.0 1.6 0.00 0.00 0.00 60 1010.9
20260505100205 13 240 1.6 4.8 0.00 0.00 0.00 61 1010.8
20260505094704 13 266 0.0 0.0 0.00 0.00 0.00 60 1010.5
20260505094204 13 266 0.0 0.0 0.00 0.00 0.00 61 1010.6
20260505093704 13 232 0.0 1.6 0.00 0.00 0.00 61 1010.5
20260505093204 13 251 0.0 4.8 0.00 0.00 0.00 61 1010.5
20260505091704 13 244 0.0 4.8 0.00 0.00 0.00 61 1010.4
20260505091204 13 249 1.6 3.2 0.00 0.00 0.00 61 1010.4
20260505090204 13 247 1.6 4.8 0.00 0.00 0.00 61 1010.4
20260505084704 13 212 0.0 4.8 0.00 0.00 0.00 61 1010.4
20260505084204 13 223 0.0 1.6 0.00 0.00 0.00 61 1010.3
20260505083204 13 205 0.0 3.2 0.00 0.00 0.00 62 1010.4
20260505081704 13 247 0.0 1.6 0.00 0.00 0.00 63 1010.5
20260505081204 13 215 0.0 1.6 0.00 0.00 0.00 63 1010.5
20260505080204 13 152 0.0 3.2 0.00 0.00 0.00 64 1010.5
20260505074704 13 212 1.6 4.8 0.00 0.00 0.00 66 1010.5
20260505074204 13 224 0.0 4.8 0.00 0.00 0.00 65 1010.4
20260505073704 13 226 0.0 4.8 0.00 0.00 0.00 65 1010.4
20260505073204 13 289 1.6 4.8 0.00 0.00 0.00 65 1010.4
20260505071705 12 231 0.0 3.2 0.00 0.00 0.00 64 1010.4
20260505071204 12 187 0.0 0.0 0.00 0.00 0.00 65 1010.4
20260505070704 12 276 0.0 0.0 0.00 0.00 0.00 65 1010.4
20260505070204 12 276 0.0 1.6 0.00 0.00 0.00 65 1010.3
20260505064705 13 225 0.0 1.6 0.00 0.00 0.00 66 1010.4
20260505063704 13 231 0.0 0.0 0.00 0.00 0.00 67 1010.5
20260505061704 13 231 0.0 0.0 0.00 0.00 0.00 67 1010.7
20260505061204 13 231 0.0 0.0 0.00 0.00 0.00 67 1010.7
20260505060704 13 231 0.0 0.0 0.00 0.00 0.00 67 1010.7
20260505060204 14 231 0.0 3.2 0.00 0.00 0.00 67 1010.7